TimeCDT,TemperatureF,Dew PointF,Humidity,Sea Level PressureIn,VisibilityMPH,Wind Direction,Wind SpeedMPH,Gust SpeedMPH,PrecipitationIn,Events,Conditions,WindDirDegrees,DateUTC
12:15 AM,81.7,70.7,69,29.93,10.0,ESE,6.9,-,N/A,,Clear,110,2013-08-02 05:15:00
12:35 AM,81.5,70.7,70,29.93,10.0,ESE,8.1,-,N/A,,Clear,110,2013-08-02 05:35:00
12:55 AM,81.0,70.7,71,29.94,10.0,ESE,8.1,-,N/A,,Clear,110,2013-08-02 05:55:00
1:15 AM,81.0,70.5,70,29.95,10.0,ESE,5.8,-,N/A,,Clear,110,2013-08-02 06:15:00
1:35 AM,80.6,70.3,71,29.94,10.0,ESE,3.5,-,N/A,,Clear,120,2013-08-02 06:35:00
1:55 AM,80.6,70.3,71,29.94,10.0,Calm,Calm,-,N/A,,Clear,0,2013-08-02 06:55:00
2:15 AM,80.1,70.0,71,29.93,10.0,ESE,4.6,-,N/A,,Clear,110,2013-08-02 07:15:00
2:35 AM,80.6,69.8,70,29.93,10.0,ESE,4.6,-,N/A,,Scattered Clouds,120,2013-08-02 07:35:00
2:55 AM,80.4,69.8,70,29.92,10.0,East,4.6,-,N/A,,Clear,100,2013-08-02 07:55:00
3:15 AM,79.7,69.8,72,29.92,10.0,ESE,5.8,-,N/A,,Clear,110,2013-08-02 08:15:00
3:35 AM,79.5,69.8,72,29.92,10.0,ESE,3.5,-,N/A,,Clear,120,2013-08-02 08:35:00
3:55 AM,79.2,69.8,73,29.92,10.0,ESE,5.8,-,N/A,,Clear,120,2013-08-02 08:55:00
4:15 AM,79.2,69.8,73,29.92,10.0,ESE,5.8,-,N/A,,Clear,110,2013-08-02 09:15:00
4:35 AM,78.8,69.8,74,29.92,10.0,SE,3.5,-,N/A,,Clear,130,2013-08-02 09:35:00
4:55 AM,78.8,69.8,74,29.92,10.0,SE,5.8,-,N/A,,Clear,130,2013-08-02 09:55:00
5:15 AM,79.2,70.2,74,29.92,10.0,SE,4.6,-,N/A,,Clear,140,2013-08-02 10:15:00
5:35 AM,79.0,70.3,75,29.92,10.0,SE,5.8,-,N/A,,Clear,140,2013-08-02 10:35:00
5:55 AM,79.2,70.7,75,29.92,10.0,SE,5.8,-,N/A,,Clear,140,2013-08-02 10:55:00
6:15 AM,79.0,70.9,76,29.92,10.0,SSE,6.9,-,N/A,,Clear,150,2013-08-02 11:15:00
6:35 AM,78.8,70.9,77,29.92,10.0,SSE,6.9,-,N/A,,Clear,160,2013-08-02 11:35:00
6:55 AM,78.8,70.9,77,29.92,10.0,SSE,8.1,-,N/A,,Clear,160,2013-08-02 11:55:00
7:35 AM,79.3,71.2,76,29.92,10.0,South,6.9,-,N/A,,Clear,180,2013-08-02 12:35:00
7:55 AM,80.1,71.6,75,29.93,10.0,SSE,8.1,-,N/A,,Clear,160,2013-08-02 12:55:00
8:15 AM,81.0,71.6,73,29.93,10.0,SSE,8.1,-,N/A,,Clear,160,2013-08-02 13:15:00
8:35 AM,82.6,71.8,70,29.93,10.0,South,10.4,-,N/A,,Clear,170,2013-08-02 13:35:00
8:55 AM,83.8,71.4,66,29.93,10.0,South,8.1,-,N/A,,Clear,180,2013-08-02 13:55:00
9:15 AM,86.0,71.2,61,29.94,10.0,South,12.7,-,N/A,,Clear,180,2013-08-02 14:15:00
9:35 AM,87.3,71.1,58,29.95,10.0,South,10.4,-,N/A,,Clear,170,2013-08-02 14:35:00
9:55 AM,88.7,71.4,56,29.94,10.0,South,12.7,17.3,N/A,,Clear,190,2013-08-02 14:55:00
10:15 AM,89.6,70.7,54,29.94,10.0,SSW,10.4,18.4,N/A,,Clear,200,2013-08-02 15:15:00
10:35 AM,91.6,71.4,52,29.94,10.0,South,10.4,-,N/A,,Clear,190,2013-08-02 15:35:00
10:55 AM,91.8,71.2,51,29.95,10.0,South,10.4,19.6,N/A,,Clear,190,2013-08-02 15:55:00
11:15 AM,93.0,70.7,48,29.95,10.0,South,11.5,16.1,N/A,,Clear,180,2013-08-02 16:15:00
11:35 AM,93.4,70.7,47,29.95,10.0,SSW,10.4,19.6,N/A,,Clear,210,2013-08-02 16:35:00
11:55 AM,95.4,70.9,45,29.96,10.0,SSW,13.8,17.3,N/A,,Clear,210,2013-08-02 16:55:00
12:15 PM,95.5,70.7,44,29.95,10.0,SSW,10.4,-,N/A,,Clear,210,2013-08-02 17:15:00
12:35 PM,96.4,70.7,43,29.95,10.0,SSW,12.7,16.1,N/A,,Clear,200,2013-08-02 17:35:00
12:55 PM,96.8,70.2,42,29.94,10.0,SSW,11.5,17.3,N/A,,Clear,210,2013-08-02 17:55:00
1:15 PM,98.2,70.3,40,29.93,10.0,South,15.0,18.4,N/A,,Clear,180,2013-08-02 18:15:00
1:35 PM,98.2,69.4,39,29.92,10.0,SSW,11.5,18.4,N/A,,Clear,200,2013-08-02 18:35:00
1:55 PM,99.1,70.0,39,29.92,10.0,SSW,15.0,18.4,N/A,,Clear,200,2013-08-02 18:55:00
2:15 PM,99.0,69.3,38,29.91,10.0,SW,15.0,19.6,N/A,,Clear,220,2013-08-02 19:15:00
2:35 PM,99.9,69.3,37,29.90,10.0,South,11.5,18.4,N/A,,Scattered Clouds,170,2013-08-02 19:35:00
2:55 PM,100.0,69.1,37,29.89,10.0,South,8.1,17.3,N/A,,Scattered Clouds,180,2013-08-02 19:55:00
3:15 PM,100.0,68.5,36,29.89,10.0,SSE,6.9,18.4,N/A,,Scattered Clouds,160,2013-08-02 20:15:00
3:35 PM,100.8,68.5,35,29.88,10.0,SSE,9.2,17.3,N/A,,Scattered Clouds,150,2013-08-02 20:35:00
3:55 PM,100.4,68.0,35,29.88,10.0,South,13.8,21.9,N/A,,Scattered Clouds,170,2013-08-02 20:55:00
4:15 PM,100.9,66.9,33,29.87,10.0,South,11.5,16.1,N/A,,Scattered Clouds,170,2013-08-02 21:15:00
4:35 PM,101.3,66.4,32,29.87,10.0,SSE,5.8,9.2,N/A,,Scattered Clouds,150,2013-08-02 21:35:00
4:55 PM,99.9,66.9,34,29.87,10.0,SSE,10.4,-,N/A,,Scattered Clouds,160,2013-08-02 21:55:00
5:15 PM,99.9,66.7,34,29.87,10.0,SSW,11.5,17.3,N/A,,Scattered Clouds,200,2013-08-02 22:15:00
5:35 PM,100.4,66.2,33,29.87,10.0,SSE,9.2,18.4,N/A,,Clear,160,2013-08-02 22:35:00
5:55 PM,100.0,66.7,34,29.86,10.0,SSE,9.2,-,N/A,,Clear,160,2013-08-02 22:55:00
6:15 PM,99.7,66.4,34,29.86,10.0,South,11.5,16.1,N/A,,Clear,180,2013-08-02 23:15:00
6:35 PM,99.0,65.8,34,29.87,10.0,South,6.9,-,N/A,,Clear,170,2013-08-02 23:35:00
6:55 PM,99.0,66.0,34,29.86,10.0,South,9.2,-,N/A,,Clear,170,2013-08-02 23:55:00
7:15 PM,98.4,65.5,34,29.87,10.0,South,10.4,-,N/A,,Scattered Clouds,170,2013-08-03 00:15:00
7:35 PM,97.0,65.3,35,29.87,10.0,SSE,8.1,-,N/A,,Clear,160,2013-08-03 00:35:00
7:55 PM,95.9,65.7,37,29.87,10.0,SSE,5.8,-,N/A,,Clear,150,2013-08-03 00:55:00
8:15 PM,94.1,65.7,39,29.87,10.0,SSE,5.8,-,N/A,,Clear,150,2013-08-03 01:15:00
8:35 PM,93.2,65.3,40,29.87,10.0,SE,5.8,-,N/A,,Clear,130,2013-08-03 01:35:00
8:55 PM,91.4,65.7,42,29.88,10.0,ESE,5.8,-,N/A,,Clear,120,2013-08-03 01:55:00
9:15 PM,90.0,67.5,47,29.89,10.0,ESE,5.8,-,N/A,,Clear,120,2013-08-03 02:15:00
9:35 PM,89.4,68.0,49,29.89,10.0,SE,8.1,-,N/A,,Clear,130,2013-08-03 02:35:00
9:55 PM,88.7,68.5,51,29.90,10.0,ESE,6.9,-,N/A,,Clear,120,2013-08-03 02:55:00
10:15 PM,88.3,69.3,53,29.91,10.0,ESE,6.9,-,N/A,,Clear,120,2013-08-03 03:15:00
10:35 PM,87.8,69.8,55,29.91,10.0,SE,5.8,-,N/A,,Clear,130,2013-08-03 03:35:00
10:55 PM,87.1,70.2,57,29.91,10.0,SE,6.9,-,N/A,,Clear,130,2013-08-03 03:55:00
11:15 PM,86.9,70.2,57,29.92,10.0,SE,6.9,-,N/A,,Clear,130,2013-08-03 04:15:00
11:35 PM,87.1,69.8,56,29.92,10.0,SE,8.1,-,N/A,,Clear,130,2013-08-03 04:35:00
11:55 PM,86.9,69.8,57,29.92,10.0,SE,8.1,-,N/A,,Clear,140,2013-08-03 04:55:00